Regional Weather Roundup
Issued by NWS Burlington, VT

Home | Current Version | Previous Version | Text Only | Print | Product List | Glossary On
Versions: 1 2 3 4 5 6 7 8 9 10 11 12 13 14 15 16 17 18 19 20 21 22 23 24 25 26 27 28 29 30 31 32 33 34 35 36 37 38 39 40 41 42 43 44 45 46 47 48 49 50
000
ASUS41 KBTV 061430
RWRBTV
VERMONT REGIONAL WEATHER ROUNDUP
NATIONAL WEATHER SERVICE BURLINGTON VT
900 AM EST FRI MAR 06 2015

NOTE: "FAIR" INDICATES FEW OR NO CLOUDS BELOW 12,000 FEET WITH NO
SIGNIFICANT WEATHER AND/OR OBSTRUCTIONS TO VISIBILITY.

* THESE REPORTS ARE NOT UNDER NWS QUALITY CONTROL AND/OR DO NOT
  REPORT WEATHER SUCH AS PRECIPITATION AND FOG.

VTZ001>019-061500-
_____VERMONT_____


CITY           SKY/WX    TMP DP  RH WIND       PRES   REMARKS
BURLINGTON     SUNNY      5  -7  57 CALM      30.49R
MONTPELIER     SUNNY     -4 -11  72 CALM      30.44R
MORRISVILLE    SUNNY     -6 -13  71 CALM      30.46R
ST. JOHNSBURY*   N/A     -7 -15  68 MISG      30.46R
LYNDONVILLE*   FAIR      -2 -13  61 CALM      30.41S
MIDDLEBURY*    FAIR       9  -8  47 CALM      30.47S
RUTLAND*       SUNNY      3 -15  43 CALM      30.45S
SPRINGFIELD    SUNNY      1  -9  62 CALM      30.49R
HIGHGATE*      FAIR       8  -8  48 S5        30.48S
NEWPORT*       FAIR       1 -12  54 S6        30.42R
BENNINGTON     SUNNY      7  -1  70 VRB5      30.47R
SUTTON*          N/A      3 N/A N/A MISG        N/A
GALLUP MILLS*    N/A      5 N/A N/A MISG        N/A
MT. MANSFIELD*   N/A     -4 N/A N/A CALM        N/A

_____LAKE CHAMPLAIN_____


CITY           SKY/WX    TMP DP  RH WIND       PRES   REMARKS
BURTON ISLAND*   N/A      5  -6  61 S12         N/A  WCI -11
COLCHESTER RF*   N/A      5  -4  66 S18         N/A  WCI -15
DIAMOND ISL*     N/A      3  -6  66 SW7         N/A

$$

NYZ007-026>031-035-052-083-061500-
_____NORTHERN NEW YORK_____


CITY           SKY/WX    TMP DP  RH WIND       PRES   REMARKS
PLATTSBURGH    SUNNY      4  -5  66 SE6       30.49R
SARANAC LAKE   SUNNY     -4 -10  75 SW7       30.32R
MASSENA        SUNNY      4  -8  57 SW13      30.51R WCI -13
OGDENSBURG*    SUNNY      9  -2  61 SW7       30.50R
POTSDAM*       SUNNY      7  -4  61 SW8       30.48S
STARK FALLS*     N/A      3 N/A N/A SE2         N/A
WATERTOWN      SUNNY      6  -4  63 S7        30.53R
FT DRUM        SUNNY      5  -3  70 SW6       30.47R
ALBANY         SUNNY     13  -2  51 NW8       30.54R
GLENS FALLS    SUNNY      4  -3  73 CALM      30.52R

$$
NHZ002-005-011-061500-
_____NEW HAMPSHIRE_____


CITY           SKY/WX    TMP DP  RH WIND       PRES   REMARKS
LEBANON        SUNNY      0  -7  72 CALM      30.48S
KEENE          SUNNY      7  -2  66 CALM      30.48S
MT WASHINGTON  SUNNY     -8 -27  37 NW30        N/A  WCI -36
PLYMOUTH       FAIR      13  -5  43 NW5       30.44F
WHITEFIELD     SUNNY     -3 -10  72 CALM      30.40F

$$

_____REGIONAL QUEBEC LOCATIONS_____


CITY           SKY/WX    TMP DP  RH WIND       PRES   REMARKS
MONTREAL       SUNNY      3  -8  60 SW14      30.48R WCI -15
QUEBEC CITY    MOSUNNY    0 -11  60 SW9       30.40S
SHERBROOKE     SUNNY     -2 -13  60 VRB2      30.40S

_____REGIONAL ONTARIO LOCATIONS_____


CITY           SKY/WX    TMP DP  RH WIND       PRES   REMARKS
OTTAWA         SUNNY      1  -8  66 SW8       30.45R

______KEY______
VSB  - VISIBILITY IN MILES
WCI  - WIND CHILL INDEX
HX   - HEAT INDEX
$$



USA.gov is the U.S. government's official web portal to all federal, state and local government web resources and services.